カタログに戻る

STARLINK-32555

運用中通信VLEO
NORAD 61918·PAYLOAD·🇺🇸 United States

打ち上げ Nov 11, 2024 から Cape Canaveral Space Force Station

Loading…

次のパス (今後24時間)

TLE

最新Source: CelesTrak SupGP

元期: Sep 14, 2026, 20:33 UTC

1 61918C 24207G   26257.85673611 -.00020520  00000+0 -74346-3 0  2573
2 61918  43.0026 297.3078 0001620 263.6562 246.9177 15.27578788    12

AllMySatでSTARLINK-32555をリアルタイム追跡

Download on the App Store